Regional Weather Roundup
Issued by NWS Sterling, VA

Home | Current Version | Previous Version | Text Only | Print | Product List | Glossary Off
Versions: 1 2 3 4 5 6 7 8 9 10 11 12 13 14 15 16 17 18 19 20 21 22 23 24 25 26 27 28

000
ASUS41 KLWX 180110
RWRLWX

REGIONAL WEATHER ROUNDUP
NATIONAL WEATHER SERVICE BALTIMORE MD/WASHINGTON DC
900 PM EDT THU APR 17 2014

Note: "FAIR" indicates few or no clouds below 12,000 feet
with no significant weather and/or obstructions to visibility.
 TC=TEMPERATURE CELSIUS

 * =Non NWS site. Station does not report precipitation (e.g. rain,
    snow, etc.), thunder, or fog.

DCZ001-MDZ009-015-VAZ040>042-051-053>054-180200-
WASHINGTON METRO

CITY           SKY/WX    TMP DP  RH WIND       PRES   REMARKS
WASHINGTON NAT PTCLDY    47  32  56 E14       30.57S
DULLES         CLEAR     45  31  58 E8        30.54S
ANDREWS AFB    CLEAR     43  32  64 E9        30.56F
FT BELVOIR     CLEAR     46  32  59 VRB6      30.57R
QUANTICO       CLEAR     48  35  60 E13       30.57R
COLLEGE PARK*  CLEAR     45  32  61 E6        30.57S
LEESBURG*      CLEAR     46  34  61 SE9       30.55R
MANASSAS*      CLEAR     46  34  61 E9        30.54S
GAITHERSBURG*  CLEAR     45  30  57 SE9       30.58R

$$

MDZ006>007-011-014-180200-
BALTIMORE METRO

CITY           SKY/WX    TMP DP  RH WIND       PRES   REMARKS
BWI AIRPORT    PTCLDY    44  32  62 SE13      30.57S
MD SCIENCE CTR   N/A     46  33  60 MISG      30.57R
MARTIN STATE   PTCLDY    45  36  70 E9        30.61R
ANNAPOLIS      CLEAR     44  34  67 E14       30.59S
FORT MEADE*    CLEAR     41  32  70 E10       30.60R

$$

MDZ012-015-019>023-180200-
MARYLAND EASTERN SHORE

CITY           SKY/WX    TMP DP  RH WIND       PRES   REMARKS
OCEAN CITY     CLOUDY    43  32  65 NE14G23   30.59F
SALISBURY      CLOUDY    43  32  65 E14G20    30.59S
BAY BRIDGE AP* CLEAR     41  32  70 E13       30.60S
CAMBRIDGE*     CLOUDY    43  32  65 E9        30.59S
EASTON*        PTCLDY    41  32  70 E9G17     30.63F

$$

MDZ017>025-180200-
SOUTHERN MARYLAND

CITY           SKY/WX    TMP DP  RH WIND       PRES   REMARKS
PATUXENT RIVER MOCLDY    42  31  64 E14       30.58S
ST INIGOES     CLEAR     43  32  65 NE12      30.57S
LEONARDTOWN*   CLEAR     41  32  70 E6        30.59S

$$

MDZ003>005-180200-
NORTH CENTRAL MARYLAND

CITY           SKY/WX    TMP DP  RH WIND       PRES   REMARKS
FREDERICK*     CLEAR     45  34  65 E6        30.58R
HAGERSTOWN APT CLEAR     47  30  51 SE12      30.51S
WESTMINSTER*   CLEAR     45  32  61 SE7       30.55R

$$

MDZ501>502-180200-
WESTERN MARYLAND

CITY           SKY/WX    TMP DP  RH WIND       PRES   REMARKS
OAKLAND*       CLEAR     41  18  38 SE17G24   30.39S
CUMBERLAND*    CLEAR     52  27  37 SE6       30.50S

$$

VAZ025>031-180200-
SHENANDOAH VALLEY

CITY           SKY/WX    TMP DP  RH WIND       PRES   REMARKS
WINCHESTER*    CLEAR     46  30  53 SE8       30.50R
STAUNTON*      CLEAR     48  26  42 CALM      30.49R

$$

WVZ021-048>050-054>055-180200-
EASTERN WEST VIRGINIA PANHANDLE

CITY           SKY/WX    TMP DP  RH WIND       PRES   REMARKS
MARTINSBURG    CLEAR     48  28  46 E5        30.51R
PETERSBURG*    CLEAR     53  34  48 S5        30.46R

$$

VAZ036>039-050-180200-
CENTRAL FOOTHILLS

CITY           SKY/WX    TMP DP  RH WIND       PRES   REMARKS
CHARLOTTESVILL CLEAR     50  32  50 E12G17    30.50R
CULPEPER*      CLEAR     48  32  53 CALM      30.53R

$$

VAZ055>057-180200-
NORTH AND CENTRAL PIEDMONT

CITY           SKY/WX    TMP DP  RH WIND       PRES   REMARKS
FREDERICKSBRG* CLEAR     48  36  61 E12       30.54S
STAFFORD*      MOCLDY    47  37  66 SE6       30.58S

$$

NCZ024-NYZ072-PAZ021-071-VAZ022-071-180200-
OTHER REGIONAL OBSERVATIONS

CITY           SKY/WX    TMP DP  RH WIND       PRES   REMARKS
NEW YORK CITY  CLEAR     41  30  65 S5        30.67S
PHILADELPHIA   PTCLDY    42  27  55 E12       30.63F
PITTSBURGH     PTCLDY    56  27  32 SE14      30.34R
ROANOKE        CLEAR     51  23  33 E5        30.48R
RICHMOND       PTCLDY    47  34  60 E10       30.53R
RALEIGH        PTCLDY    53  37  54 E3        30.45R

$$

ANZ530>537-180200-
MARINE OBSERVATIONS

STATION/POSITION TIME  TEMP    WIND        PRES
                       AIR SEA DIR/SP/G
                 (UTC) (F)     (DEG/KT/KT) (MB)
THOMAS PT LIGHT  0100   43 52  100/ 17/ 19 1036.1F
BALT KEY BRIDGE  0100   45     100/ 17/ 19 1035.5R
COVE POINT       0100   42      90/ 16/ 18 1035.4F
LEWISETTA        0100   45 53   80/ 13/ 17 1034.7R
SOLOMONS ISLAND  0100      53                N/A
PINEY POINT      0100           80/ 11/ 14   N/A

$$




USA.gov is the U.S. government's official web portal to all federal, state and local government web resources and services.